Torna al catalogo

SL-8 DEB

AttivoLEO
NORAD 2647·DEBRIS·🇷🇺 Russia

Lanciato Sep 18, 1965 da Baikonur Cosmodrome

Loading…

Prossimi Passaggi (prossime 24 ore)

TLE

AggiornatoSource: Space-Track

Epoca: Sep 12, 2026, 14:45 UTC

1 02647U 65073L   26255.61468970 -.00000020  00000-0  49082-3 0  9990
2 02647  56.0664 315.3832 0186947 182.3583 342.6933 12.43717035127506

Traccia SL-8 DEB in tempo reale con AllMySat

Download on the App Store